Time,TemperatureF,DewpointF,PressureIn,WindDirection,WindDirectionDegrees,WindSpeedMPH,WindSpeedGustMPH,Humidity,HourlyPrecipIn,Conditions,Clouds,dailyrainin,SolarRadiationWatts/m^2,SoftwareType,DateUTC
2013-03-07 00:00:00,42.3,40.1,29.92,West,274,4.0,9.0,92,0.04,,,0.00,0,Wunderground v.1.15,2013-03-07 08:00:00,
2013-03-07 00:05:00,42.4,40.2,29.92,WNW,287,1.0,4.0,92,0.04,,,0.01,0,Wunderground v.1.15,2013-03-07 08:05:00,
2013-03-07 00:10:00,42.4,40.2,29.92,West,274,4.0,5.0,92,0.04,,,0.01,0,Wunderground v.1.15,2013-03-07 08:10:00,
2013-03-07 00:15:00,42.4,40.2,29.92,West,267,3.0,7.0,92,0.05,,,0.02,0,Wunderground v.1.15,2013-03-07 08:15:00,
2013-03-07 00:20:00,42.4,40.5,29.93,West,270,2.0,7.0,93,0.05,,,0.02,0,Wunderground v.1.15,2013-03-07 08:20:00,
2013-03-07 00:25:00,42.5,40.6,29.93,West,260,3.0,5.0,93,0.06,,,0.03,0,Wunderground v.1.15,2013-03-07 08:25:00,
2013-03-07 00:30:00,42.6,40.7,29.93,SW,234,2.0,9.0,93,0.06,,,0.03,0,Wunderground v.1.15,2013-03-07 08:30:00,
2013-03-07 00:35:00,42.6,40.7,29.93,West,265,5.0,8.0,93,0.05,,,0.03,0,Wunderground v.1.15,2013-03-07 08:35:00,
2013-03-07 00:40:00,42.6,40.7,29.93,West,269,1.0,3.0,93,0.04,,,0.04,0,Wunderground v.1.15,2013-03-07 08:40:00,
2013-03-07 00:45:00,42.7,40.8,29.93,WSW,245,6.0,7.0,93,0.04,,,0.04,0,Wunderground v.1.15,2013-03-07 08:45:00,
2013-03-07 00:50:00,42.7,40.8,29.94,West,259,1.0,3.0,93,0.04,,,0.04,0,Wunderground v.1.15,2013-03-07 08:50:00,
2013-03-07 00:55:00,42.7,40.8,29.93,West,263,6.0,6.0,93,0.04,,,0.05,0,Wunderground v.1.15,2013-03-07 08:55:00,
2013-03-07 01:00:00,42.8,40.9,29.93,WSW,246,3.0,6.0,93,0.04,,,0.05,0,Wunderground v.1.15,2013-03-07 09:00:00,
2013-03-07 01:05:00,42.8,40.9,29.94,West,268,2.0,8.0,93,0.04,,,0.05,0,Wunderground v.1.15,2013-03-07 09:05:00,
2013-03-07 01:10:00,42.8,40.9,29.94,West,265,2.0,4.0,93,0.04,,,0.06,0,Wunderground v.1.15,2013-03-07 09:10:00,
2013-03-07 01:15:00,42.8,40.9,29.94,West,263,3.0,7.0,93,0.04,,,0.06,0,Wunderground v.1.15,2013-03-07 09:15:00,
2013-03-07 01:20:00,42.9,41.0,29.94,West,267,3.0,4.0,93,0.04,,,0.06,0,Wunderground v.1.15,2013-03-07 09:20:00,
2013-03-07 01:25:00,42.9,41.0,29.95,West,281,4.0,7.0,93,0.00,,,0.06,0,Wunderground v.1.15,2013-03-07 09:25:00,
2013-03-07 01:30:00,42.9,41.0,29.95,West,265,5.0,6.0,93,0.00,,,0.06,0,Wunderground v.1.15,2013-03-07 09:30:00,
2013-03-07 01:35:00,42.9,41.0,29.95,WNW,282,4.0,6.0,93,0.00,,,0.06,0,Wunderground v.1.15,2013-03-07 09:35:00,
2013-03-07 01:40:00,42.9,41.0,29.95,WNW,290,3.0,4.0,93,0.00,,,0.07,0,Wunderground v.1.15,2013-03-07 09:40:00,
2013-03-07 01:45:00,43.0,41.1,29.95,West,278,4.0,6.0,93,0.00,,,0.07,0,Wunderground v.1.15,2013-03-07 09:45:00,
2013-03-07 01:50:00,43.0,41.1,29.95,West,273,1.0,3.0,93,0.00,,,0.07,0,Wunderground v.1.15,2013-03-07 09:50:00,
2013-03-07 01:55:00,43.0,41.1,29.95,West,274,2.0,6.0,93,0.00,,,0.07,0,Wunderground v.1.15,2013-03-07 09:55:00,
2013-03-07 02:00:00,43.0,41.1,29.96,WNW,284,4.0,7.0,93,0.00,,,0.07,0,Wunderground v.1.15,2013-03-07 10:00:00,
2013-03-07 02:05:00,43.1,41.2,29.96,West,275,2.0,7.0,93,0.00,,,0.07,0,Wunderground v.1.15,2013-03-07 10:05:00,
2013-03-07 02:10:00,43.1,41.2,29.96,West,276,5.0,7.0,93,0.00,,,0.07,0,Wunderground v.1.15,2013-03-07 10:10:00,
2013-03-07 02:15:00,43.1,41.2,29.96,WSW,250,2.0,12.0,93,0.00,,,0.07,0,Wunderground v.1.15,2013-03-07 10:15:00,
2013-03-07 02:20:00,43.2,41.3,29.96,West,264,4.0,5.0,93,0.00,,,0.08,0,Wunderground v.1.15,2013-03-07 10:20:00,
2013-03-07 02:25:00,43.2,41.3,29.96,West,268,5.0,8.0,93,0.00,,,0.08,0,Wunderground v.1.15,2013-03-07 10:25:00,
2013-03-07 02:30:00,43.2,41.0,29.96,WNW,294,5.0,5.0,92,0.00,,,0.08,0,Wunderground v.1.15,2013-03-07 10:30:00,
2013-03-07 02:35:00,43.2,41.0,29.96,West,281,5.0,8.0,92,0.00,,,0.08,0,Wunderground v.1.15,2013-03-07 10:35:00,
2013-03-07 02:40:00,43.1,40.9,29.96,West,259,5.0,6.0,92,0.00,,,0.08,0,Wunderground v.1.15,2013-03-07 10:40:00,
2013-03-07 02:46:00,43.2,41.0,29.96,SW,236,3.0,8.0,92,0.00,,,0.08,0,Wunderground v.1.15,2013-03-07 10:46:00,
2013-03-07 02:51:00,43.2,41.0,29.96,SW,234,4.0,9.0,92,0.00,,,0.09,0,Wunderground v.1.15,2013-03-07 10:51:00,
2013-03-07 02:56:00,43.1,40.7,29.97,West,271,3.0,9.0,91,0.00,,,0.09,0,Wunderground v.1.15,2013-03-07 10:56:00,
2013-03-07 03:01:00,43.1,40.7,29.97,WSW,242,4.0,4.0,91,0.00,,,0.09,0,Wunderground v.1.15,2013-03-07 11:01:00,
2013-03-07 03:06:00,43.1,40.7,29.97,WNW,284,4.0,5.0,91,0.00,,,0.09,0,Wunderground v.1.15,2013-03-07 11:06:00,
2013-03-07 03:11:00,43.1,40.7,29.97,West,277,2.0,6.0,91,0.00,,,0.09,0,Wunderground v.1.15,2013-03-07 11:11:00,
2013-03-07 03:16:00,43.0,40.6,29.97,West,270,3.0,6.0,91,0.00,,,0.10,0,Wunderground v.1.15,2013-03-07 11:16:00,
2013-03-07 03:21:00,43.0,40.6,29.97,West,274,4.0,4.0,91,0.00,,,0.10,0,Wunderground v.1.15,2013-03-07 11:21:00,
2013-03-07 03:26:00,43.0,40.6,29.97,SW,227,4.0,7.0,91,0.00,,,0.10,0,Wunderground v.1.15,2013-03-07 11:26:00,
2013-03-07 03:31:00,43.0,40.6,29.98,WSW,247,5.0,7.0,91,0.00,,,0.10,0,Wunderground v.1.15,2013-03-07 11:31:00,
2013-03-07 03:36:00,43.1,40.7,29.98,West,262,5.0,7.0,91,0.00,,,0.10,0,Wunderground v.1.15,2013-03-07 11:36:00,
2013-03-07 03:41:00,43.1,40.7,29.98,West,277,4.0,6.0,91,0.00,,,0.10,0,Wunderground v.1.15,2013-03-07 11:41:00,
2013-03-07 03:46:00,43.2,40.8,29.98,WSW,254,5.0,8.0,91,0.00,,,0.10,0,Wunderground v.1.15,2013-03-07 11:46:00,
2013-03-07 03:51:00,43.2,40.8,29.98,West,264,3.0,7.0,91,0.00,,,0.10,0,Wunderground v.1.15,2013-03-07 11:51:00,
2013-03-07 03:56:00,43.2,40.8,29.98,WSW,250,2.0,7.0,91,0.00,,,0.10,0,Wunderground v.1.15,2013-03-07 11:56:00,
2013-03-07 04:01:00,43.1,40.7,29.98,WSW,252,5.0,6.0,91,0.00,,,0.10,0,Wunderground v.1.15,2013-03-07 12:01:00,
2013-03-07 04:06:00,43.1,40.4,29.98,West,259,2.0,8.0,90,0.00,,,0.10,0,Wunderground v.1.15,2013-03-07 12:06:00,
2013-03-07 04:11:00,43.1,40.7,29.98,West,259,4.0,5.0,91,0.00,,,0.10,0,Wunderground v.1.15,2013-03-07 12:11:00,
2013-03-07 04:16:00,43.1,40.4,29.99,West,279,4.0,7.0,90,0.00,,,0.10,0,Wunderground v.1.15,2013-03-07 12:16:00,
2013-03-07 04:21:00,43.1,40.4,29.99,West,262,3.0,7.0,90,0.00,,,0.11,0,Wunderground v.1.15,2013-03-07 12:21:00,
2013-03-07 04:26:00,43.1,40.4,29.99,WSW,240,3.0,7.0,90,0.00,,,0.11,0,Wunderground v.1.15,2013-03-07 12:26:00,
2013-03-07 04:31:00,43.0,40.3,29.99,West,265,1.0,3.0,90,0.00,,,0.11,0,Wunderground v.1.15,2013-03-07 12:31:00,
2013-03-07 04:36:00,43.0,40.6,29.99,West,261,2.0,4.0,91,0.00,,,0.11,0,Wunderground v.1.15,2013-03-07 12:36:00,
2013-03-07 04:41:00,43.0,40.6,29.99,West,269,0.0,2.0,91,0.00,,,0.11,0,Wunderground v.1.15,2013-03-07 12:41:00,
2013-03-07 04:46:00,43.0,40.6,29.99,WSW,255,2.0,5.0,91,0.00,,,0.11,0,Wunderground v.1.15,2013-03-07 12:46:00,
2013-03-07 04:51:00,43.0,40.6,29.99,WSW,254,2.0,3.0,91,0.00,,,0.11,0,Wunderground v.1.15,2013-03-07 12:51:00,
2013-03-07 04:56:00,43.0,40.6,30.00,WSW,248,0.0,4.0,91,0.00,,,0.11,0,Wunderground v.1.15,2013-03-07 12:56:00,
2013-03-07 05:01:00,43.0,40.6,30.00,WSW,244,0.0,2.0,91,0.00,,,0.11,0,Wunderground v.1.15,2013-03-07 13:01:00,
2013-03-07 05:07:00,43.0,40.6,30.00,WSW,242,0.0,3.0,91,0.00,,,0.12,0,Wunderground v.1.15,2013-03-07 13:07:00,
2013-03-07 05:12:00,42.9,40.7,30.00,WSW,242,0.0,2.0,92,0.00,,,0.12,0,Wunderground v.1.15,2013-03-07 13:12:00,
2013-03-07 05:17:00,42.9,40.7,30.00,WSW,242,0.0,2.0,92,0.00,,,0.12,0,Wunderground v.1.15,2013-03-07 13:17:00,
2013-03-07 05:22:00,42.9,40.7,30.00,WSW,242,0.0,1.0,92,0.00,,,0.12,0,Wunderground v.1.15,2013-03-07 13:22:00,
2013-03-07 05:27:00,42.9,40.7,30.00,WSW,242,0.0,2.0,92,0.00,,,0.12,0,Wunderground v.1.15,2013-03-07 13:27:00,
2013-03-07 05:32:00,42.9,41.0,30.00,SW,235,0.0,1.0,93,0.00,,,0.12,0,Wunderground v.1.15,2013-03-07 13:32:00,
2013-03-07 05:37:00,42.8,40.9,30.01,SW,235,0.0,2.0,93,0.00,,,0.13,0,Wunderground v.1.15,2013-03-07 13:37:00,
2013-03-07 05:42:00,42.8,40.9,30.01,SW,215,1.0,2.0,93,0.00,,,0.13,0,Wunderground v.1.15,2013-03-07 13:42:00,
2013-03-07 05:47:00,42.7,40.8,30.01,SW,215,1.0,2.0,93,0.00,,,0.13,0,Wunderground v.1.15,2013-03-07 13:47:00,
2013-03-07 05:52:00,42.7,40.8,30.01,SW,215,0.0,2.0,93,0.00,,,0.13,0,Wunderground v.1.15,2013-03-07 13:52:00,
2013-03-07 05:57:00,42.7,41.1,30.01,SW,215,2.0,2.0,94,0.00,,,0.13,0,Wunderground v.1.15,2013-03-07 13:57:00,
2013-03-07 06:02:00,42.7,41.1,30.01,SW,215,1.0,3.0,94,0.00,,,0.13,0,Wunderground v.1.15,2013-03-07 14:02:00,
2013-03-07 06:07:00,42.7,41.1,30.01,SW,215,0.0,3.0,94,0.00,,,0.14,0,Wunderground v.1.15,2013-03-07 14:07:00,
2013-03-07 06:12:00,42.7,41.1,30.01,SW,215,0.0,1.0,94,0.00,,,0.14,0,Wunderground v.1.15,2013-03-07 14:12:00,
2013-03-07 06:17:00,42.7,41.1,30.01,SW,215,0.0,2.0,94,0.00,,,0.14,0,Wunderground v.1.15,2013-03-07 14:17:00,
2013-03-07 06:22:00,42.7,41.1,30.01,WNW,283,3.0,4.0,94,0.00,,,0.14,0,Wunderground v.1.15,2013-03-07 14:22:00,
2013-03-07 06:27:00,42.7,41.1,30.01,West,269,3.0,5.0,94,0.00,,,0.14,0,Wunderground v.1.15,2013-03-07 14:27:00,
2013-03-07 06:32:00,42.8,41.2,30.01,West,271,5.0,5.0,94,0.00,,,0.14,0,Wunderground v.1.15,2013-03-07 14:32:00,
2013-03-07 06:37:00,42.9,41.3,30.01,West,265,2.0,5.0,94,0.00,,,0.15,0,Wunderground v.1.15,2013-03-07 14:37:00,
2013-03-07 06:42:00,42.9,41.0,30.02,West,270,6.0,6.0,93,0.00,,,0.15,0,Wunderground v.1.15,2013-03-07 14:42:00,
2013-03-07 06:47:00,43.0,41.1,30.02,WSW,248,4.0,7.0,93,0.00,,,0.15,5,Wunderground v.1.15,2013-03-07 14:47:00,
2013-03-07 06:52:00,43.1,41.2,30.02,SW,232,3.0,8.0,93,0.00,,,0.15,9,Wunderground v.1.15,2013-03-07 14:52:00,
2013-03-07 06:57:00,43.1,41.2,30.02,West,267,4.0,9.0,93,0.00,,,0.15,12,Wunderground v.1.15,2013-03-07 14:57:00,
2013-03-07 07:02:00,43.2,41.3,30.02,West,272,6.0,10.0,93,0.00,,,0.15,16,Wunderground v.1.15,2013-03-07 15:02:00,
2013-03-07 07:07:00,43.3,41.4,30.02,WSW,245,2.0,10.0,93,0.00,,,0.15,14,Wunderground v.1.15,2013-03-07 15:07:00,
2013-03-07 07:12:00,43.4,41.2,30.03,West,270,5.0,7.0,92,0.00,,,0.15,18,Wunderground v.1.15,2013-03-07 15:12:00,
2013-03-07 07:17:00,43.5,41.3,30.02,WSW,237,4.0,10.0,92,0.00,,,0.15,25,Wunderground v.1.15,2013-03-07 15:17:00,
2013-03-07 07:22:00,43.6,41.4,30.03,West,276,6.0,9.0,92,0.00,,,0.16,26,Wunderground v.1.15,2013-03-07 15:22:00,
2013-03-07 07:27:00,43.6,41.1,30.03,West,273,10.0,12.0,91,0.00,,,0.16,33,Wunderground v.1.15,2013-03-07 15:27:00,
2013-03-07 07:32:00,43.8,41.3,30.03,SW,215,7.0,10.0,91,0.00,,,0.16,40,Wunderground v.1.15,2013-03-07 15:32:00,
2013-03-07 07:37:00,43.8,41.3,30.03,West,261,6.0,12.0,91,0.00,,,0.16,44,Wunderground v.1.15,2013-03-07 15:37:00,
2013-03-07 07:42:00,43.8,41.1,30.03,West,275,5.0,11.0,90,0.00,,,0.16,47,Wunderground v.1.15,2013-03-07 15:42:00,
2013-03-07 07:47:00,43.8,41.1,30.03,WNW,284,2.0,11.0,90,0.00,,,0.16,47,Wunderground v.1.15,2013-03-07 15:47:00,
2013-03-07 07:52:00,43.8,41.3,30.03,West,277,2.0,6.0,91,0.00,,,0.16,42,Wunderground v.1.15,2013-03-07 15:52:00,
2013-03-07 07:57:00,43.9,41.4,30.04,West,266,4.0,6.0,91,0.00,,,0.16,51,Wunderground v.1.15,2013-03-07 15:57:00,
2013-03-07 08:02:00,43.9,41.4,30.03,West,264,2.0,5.0,91,0.00,,,0.16,44,Wunderground v.1.15,2013-03-07 16:02:00,
2013-03-07 08:07:00,43.9,41.4,30.04,West,270,2.0,5.0,91,0.00,,,0.16,39,Wunderground v.1.15,2013-03-07 16:07:00,
2013-03-07 08:12:00,43.9,41.4,30.04,West,262,1.0,4.0,91,0.00,,,0.16,30,Wunderground v.1.15,2013-03-07 16:12:00,
2013-03-07 08:17:00,43.9,41.4,30.04,SW,223,3.0,8.0,91,0.00,,,0.16,37,Wunderground v.1.15,2013-03-07 16:17:00,
2013-03-07 08:22:00,44.0,41.5,30.04,West,271,6.0,6.0,91,0.00,,,0.16,46,Wunderground v.1.15,2013-03-07 16:22:00,
2013-03-07 08:27:00,44.0,41.5,30.04,West,268,8.0,8.0,91,0.00,,,0.16,30,Wunderground v.1.15,2013-03-07 16:27:00,
2013-03-07 08:32:00,44.0,41.5,30.04,West,281,4.0,7.0,91,0.00,,,0.16,30,Wunderground v.1.15,2013-03-07 16:32:00,
2013-03-07 08:37:00,44.0,41.5,30.04,SW,232,3.0,8.0,91,0.00,,,0.16,40,Wunderground v.1.15,2013-03-07 16:37:00,
2013-03-07 08:42:00,44.1,41.4,30.04,West,265,6.0,10.0,90,0.00,,,0.17,53,Wunderground v.1.15,2013-03-07 16:42:00,
2013-03-07 08:47:00,44.2,41.2,30.05,West,269,7.0,10.0,89,0.00,,,0.17,49,Wunderground v.1.15,2013-03-07 16:47:00,
2013-03-07 08:52:00,44.2,41.2,30.05,West,267,7.0,11.0,89,0.00,,,0.17,56,Wunderground v.1.15,2013-03-07 16:52:00,
2013-03-07 08:57:00,44.3,41.3,30.05,West,266,5.0,11.0,89,0.00,,,0.17,62,Wunderground v.1.15,2013-03-07 16:57:00,
2013-03-07 09:02:00,44.3,41.3,30.05,West,273,8.0,8.0,89,0.00,,,0.17,86,Wunderground v.1.15,2013-03-07 17:02:00,
2013-03-07 09:07:00,44.5,41.5,30.05,WSW,242,5.0,11.0,89,0.00,,,0.17,105,Wunderground v.1.15,2013-03-07 17:07:00,
2013-03-07 09:12:00,44.6,41.3,30.05,West,273,6.0,9.0,88,0.00,,,0.17,88,Wunderground v.1.15,2013-03-07 17:12:00,
2013-03-07 09:17:00,44.9,41.9,30.05,West,275,4.0,9.0,89,0.00,,,0.17,84,Wunderground v.1.15,2013-03-07 17:17:00,
2013-03-07 09:22:00,45.0,42.0,30.06,WSW,258,4.0,7.0,89,0.00,,,0.17,100,Wunderground v.1.15,2013-03-07 17:22:00,
2013-03-07 09:27:00,45.0,41.4,30.06,WSW,246,7.0,10.0,87,0.00,,,0.17,107,Wunderground v.1.15,2013-03-07 17:27:00,
2013-03-07 09:32:00,45.1,41.5,30.06,WSW,252,3.0,11.0,87,0.00,,,0.17,135,Wunderground v.1.15,2013-03-07 17:32:00,
2013-03-07 09:37:00,45.3,41.7,30.06,SW,229,5.0,11.0,87,0.00,,,0.17,155,Wunderground v.1.15,2013-03-07 17:37:00,
2013-03-07 09:42:00,45.2,41.6,30.06,WSW,252,7.0,11.0,87,0.00,,,0.17,121,Wunderground v.1.15,2013-03-07 17:42:00,
2013-03-07 09:47:00,45.2,41.6,30.06,SW,233,6.0,11.0,87,0.00,,,0.17,128,Wunderground v.1.15,2013-03-07 17:47:00,
2013-03-07 09:53:00,45.3,41.4,30.07,WSW,243,8.0,11.0,86,0.00,,,0.17,156,Wunderground v.1.15,2013-03-07 17:53:00,
2013-03-07 09:57:00,45.3,41.4,30.07,SW,229,9.0,11.0,86,0.00,,,0.17,151,Wunderground v.1.15,2013-03-07 17:57:00,
2013-03-07 10:03:00,45.4,41.5,30.07,WSW,249,7.0,9.0,86,0.00,,,0.17,163,Wunderground v.1.15,2013-03-07 18:03:00,
2013-03-07 10:08:00,45.4,41.5,30.07,SW,216,7.0,10.0,86,0.00,,,0.17,165,Wunderground v.1.15,2013-03-07 18:08:00,
2013-03-07 10:13:00,45.5,41.6,30.07,WSW,249,6.0,9.0,86,0.00,,,0.17,148,Wunderground v.1.15,2013-03-07 18:13:00,
2013-03-07 10:18:00,45.5,41.3,30.07,SW,226,6.0,11.0,85,0.00,,,0.17,162,Wunderground v.1.15,2013-03-07 18:18:00,
2013-03-07 10:23:00,45.5,41.3,30.07,West,264,4.0,9.0,85,0.00,,,0.17,144,Wunderground v.1.15,2013-03-07 18:23:00,
2013-03-07 10:28:00,45.5,41.6,30.07,West,267,6.0,9.0,86,0.00,,,0.17,163,Wunderground v.1.15,2013-03-07 18:28:00,
2013-03-07 10:33:00,45.6,41.7,30.07,West,267,5.0,9.0,86,0.00,,,0.17,153,Wunderground v.1.15,2013-03-07 18:33:00,
2013-03-07 10:38:00,45.6,41.7,30.07,SW,227,7.0,9.0,86,0.00,,,0.17,149,Wunderground v.1.15,2013-03-07 18:38:00,
2013-03-07 10:43:00,45.7,41.8,30.07,SW,223,4.0,6.0,86,0.00,,,0.17,155,Wunderground v.1.15,2013-03-07 18:43:00,
2013-03-07 10:48:00,45.8,41.9,30.07,WSW,246,3.0,6.0,86,0.00,,,0.17,167,Wunderground v.1.15,2013-03-07 18:48:00,
2013-03-07 10:53:00,45.9,41.9,30.08,West,261,3.0,8.0,86,0.00,,,0.17,146,Wunderground v.1.15,2013-03-07 18:53:00,
2013-03-07 10:58:00,46.0,42.0,30.07,West,270,5.0,8.0,86,0.00,,,0.17,123,Wunderground v.1.15,2013-03-07 18:58:00,
2013-03-07 11:03:00,46.0,41.7,30.08,West,269,6.0,7.0,85,0.00,,,0.17,195,Wunderground v.1.15,2013-03-07 19:03:00,
2013-03-07 11:08:00,46.1,41.8,30.08,West,276,5.0,9.0,85,0.00,,,0.17,137,Wunderground v.1.15,2013-03-07 19:08:00,
2013-03-07 11:14:00,46.2,41.6,30.08,West,273,3.0,6.0,84,0.00,,,0.17,113,Wunderground v.1.15,2013-03-07 19:14:00,
2013-03-07 11:19:00,46.3,41.7,30.08,West,276,7.0,10.0,84,0.00,,,0.17,100,Wunderground v.1.15,2013-03-07 19:19:00,
2013-03-07 11:24:00,46.3,41.7,30.08,WSW,258,6.0,8.0,84,0.00,,,0.17,149,Wunderground v.1.15,2013-03-07 19:24:00,
2013-03-07 11:29:00,46.5,41.9,30.08,WNW,289,3.0,8.0,84,0.00,,,0.17,137,Wunderground v.1.15,2013-03-07 19:29:00,
2013-03-07 11:34:00,46.7,41.5,30.08,West,281,7.0,9.0,82,0.00,,,0.17,158,Wunderground v.1.15,2013-03-07 19:34:00,
2013-03-07 11:39:00,46.8,41.3,30.08,WSW,252,2.0,12.0,81,0.00,,,0.17,171,Wunderground v.1.15,2013-03-07 19:39:00,
2013-03-07 11:44:00,46.9,41.7,30.08,West,276,8.0,10.0,82,0.00,,,0.17,118,Wunderground v.1.15,2013-03-07 19:44:00,
2013-03-07 11:49:00,47.0,41.8,30.08,West,267,4.0,10.0,82,0.00,,,0.17,220,Wunderground v.1.15,2013-03-07 19:49:00,
2013-03-07 11:54:00,47.3,41.8,30.08,West,260,4.0,7.0,81,0.00,,,0.17,218,Wunderground v.1.15,2013-03-07 19:54:00,
2013-03-07 11:59:00,47.4,41.5,30.08,West,265,5.0,10.0,80,0.00,,,0.17,144,Wunderground v.1.15,2013-03-07 19:59:00,
2013-03-07 12:04:00,47.4,41.5,30.08,West,267,3.0,8.0,80,0.00,,,0.17,239,Wunderground v.1.15,2013-03-07 20:04:00,
2013-03-07 12:09:00,47.7,41.8,30.08,West,272,5.0,8.0,80,0.00,,,0.17,288,Wunderground v.1.15,2013-03-07 20:09:00,
2013-03-07 12:14:00,47.8,41.9,30.08,SW,232,5.0,6.0,80,0.00,,,0.17,269,Wunderground v.1.15,2013-03-07 20:14:00,
2013-03-07 12:19:00,48.1,42.2,30.08,West,273,4.0,8.0,80,0.00,,,0.17,221,Wunderground v.1.15,2013-03-07 20:19:00,
2013-03-07 12:24:00,47.9,42.3,30.08,WSW,238,3.0,7.0,81,0.00,,,0.17,192,Wunderground v.1.15,2013-03-07 20:24:00,
2013-03-07 12:29:00,48.0,42.1,30.08,WNW,284,3.0,7.0,80,0.00,,,0.17,225,Wunderground v.1.15,2013-03-07 20:29:00,
2013-03-07 12:34:00,48.3,42.1,30.08,WSW,253,5.0,9.0,79,0.00,,,0.17,246,Wunderground v.1.15,2013-03-07 20:34:00,
2013-03-07 12:39:00,48.5,42.0,30.08,SW,223,6.0,9.0,78,0.00,,,0.17,719,Wunderground v.1.15,2013-03-07 20:39:00,
2013-03-07 12:44:00,48.6,41.7,30.07,WNW,292,3.0,7.0,77,0.00,,,0.17,392,Wunderground v.1.15,2013-03-07 20:44:00,
2013-03-07 12:49:00,49.1,41.5,30.07,West,277,7.0,10.0,75,0.00,,,0.17,420,Wunderground v.1.15,2013-03-07 20:49:00,
2013-03-07 12:54:00,49.6,41.7,30.07,WSW,253,6.0,10.0,74,0.00,,,0.17,580,Wunderground v.1.15,2013-03-07 20:54:00,
2013-03-07 12:59:00,50.1,41.4,30.07,WSW,257,10.0,10.0,72,0.00,,,0.17,508,Wunderground v.1.15,2013-03-07 20:59:00,
2013-03-07 13:04:00,50.1,40.7,30.07,WSW,250,7.0,12.0,70,0.00,,,0.17,483,Wunderground v.1.15,2013-03-07 21:04:00,
2013-03-07 13:10:00,50.2,41.2,30.07,West,266,11.0,13.0,71,0.00,,,0.17,698,Wunderground v.1.15,2013-03-07 21:10:00,
2013-03-07 13:15:00,50.6,41.2,30.06,WSW,253,8.0,9.0,70,0.00,,,0.17,512,Wunderground v.1.15,2013-03-07 21:15:00,
2013-03-07 13:20:00,50.9,41.5,30.06,West,275,4.0,9.0,70,0.00,,,0.17,735,Wunderground v.1.15,2013-03-07 21:20:00,
2013-03-07 13:25:00,51.2,41.4,30.06,West,273,5.0,8.0,69,0.00,,,0.17,628,Wunderground v.1.15,2013-03-07 21:25:00,
2013-03-07 13:30:00,51.5,42.4,30.06,West,265,3.0,8.0,71,0.00,,,0.17,599,Wunderground v.1.15,2013-03-07 21:30:00,
2013-03-07 13:35:00,51.7,41.9,30.06,West,277,5.0,9.0,69,0.00,,,0.17,666,Wunderground v.1.15,2013-03-07 21:35:00,
2013-03-07 13:40:00,51.9,41.7,30.06,WSW,250,6.0,9.0,68,0.00,,,0.17,599,Wunderground v.1.15,2013-03-07 21:40:00,
2013-03-07 13:45:00,51.3,41.5,30.06,NW,317,3.0,10.0,69,0.00,,,0.17,281,Wunderground v.1.15,2013-03-07 21:45:00,
2013-03-07 13:50:00,51.8,41.6,30.06,West,272,3.0,12.0,68,0.00,,,0.17,445,Wunderground v.1.15,2013-03-07 21:50:00,
2013-03-07 13:55:00,51.4,41.2,30.06,NW,323,4.0,9.0,68,0.00,,,0.17,274,Wunderground v.1.15,2013-03-07 21:55:00,
2013-03-07 14:00:00,50.8,41.4,30.06,NNW,346,3.0,9.0,70,0.00,,,0.17,292,Wunderground v.1.15,2013-03-07 22:00:00,
2013-03-07 14:05:00,50.8,41.4,30.06,NW,317,3.0,6.0,70,0.00,,,0.17,272,Wunderground v.1.15,2013-03-07 22:05:00,
2013-03-07 14:10:00,50.8,41.4,30.06,West,263,5.0,6.0,70,0.00,,,0.17,271,Wunderground v.1.15,2013-03-07 22:10:00,
2013-03-07 14:15:00,50.6,41.5,30.06,WSW,250,4.0,7.0,71,0.00,,,0.17,237,Wunderground v.1.15,2013-03-07 22:15:00,
2013-03-07 14:20:00,50.3,41.3,30.06,WNW,292,2.0,7.0,71,0.00,,,0.17,250,Wunderground v.1.15,2013-03-07 22:20:00,
2013-03-07 14:25:00,50.7,41.3,30.06,West,259,4.0,6.0,70,0.00,,,0.17,267,Wunderground v.1.15,2013-03-07 22:25:00,
2013-03-07 14:30:00,50.4,41.0,30.06,WSW,253,6.0,8.0,70,0.00,,,0.17,325,Wunderground v.1.15,2013-03-07 22:30:00,
2013-03-07 14:35:00,50.4,41.0,30.06,West,266,6.0,7.0,70,0.00,,,0.17,394,Wunderground v.1.15,2013-03-07 22:35:00,
2013-03-07 14:40:00,50.3,40.9,30.06,West,269,5.0,7.0,70,0.00,,,0.17,411,Wunderground v.1.15,2013-03-07 22:40:00,
2013-03-07 14:45:00,50.7,41.3,30.06,West,261,3.0,6.0,70,0.00,,,0.17,316,Wunderground v.1.15,2013-03-07 22:45:00,
2013-03-07 14:50:00,51.0,41.6,30.06,WSW,255,2.0,6.0,70,0.00,,,0.17,265,Wunderground v.1.15,2013-03-07 22:50:00,
2013-03-07 14:55:00,51.4,41.2,30.06,WSW,253,4.0,5.0,68,0.00,,,0.17,295,Wunderground v.1.15,2013-03-07 22:55:00,
2013-03-07 15:00:00,51.1,40.9,30.06,West,269,3.0,8.0,68,0.00,,,0.17,450,Wunderground v.1.15,2013-03-07 23:00:00,
2013-03-07 15:05:00,51.1,40.9,30.06,West,262,4.0,6.0,68,0.00,,,0.17,304,Wunderground v.1.15,2013-03-07 23:05:00,
2013-03-07 15:10:00,50.8,40.2,30.06,West,274,2.0,6.0,67,0.00,,,0.17,221,Wunderground v.1.15,2013-03-07 23:10:00,
2013-03-07 15:15:00,51.3,40.7,30.06,West,266,4.0,4.0,67,0.00,,,0.17,176,Wunderground v.1.15,2013-03-07 23:15:00,
2013-03-07 15:20:00,51.1,40.1,30.06,West,264,0.0,2.0,66,0.00,,,0.17,207,Wunderground v.1.15,2013-03-07 23:20:00,
2013-03-07 15:25:00,51.6,40.6,30.06,WNW,293,1.0,5.0,66,0.00,,,0.17,197,Wunderground v.1.15,2013-03-07 23:25:00,
2013-03-07 15:30:00,51.6,40.2,30.06,WNW,293,3.0,3.0,65,0.00,,,0.17,207,Wunderground v.1.15,2013-03-07 23:30:00,
2013-03-07 15:35:00,51.4,40.0,30.06,WNW,293,4.0,5.0,65,0.00,,,0.17,251,Wunderground v.1.15,2013-03-07 23:35:00,
2013-03-07 15:40:00,51.4,40.4,30.07,WNW,293,1.0,2.0,66,0.00,,,0.17,192,Wunderground v.1.15,2013-03-07 23:40:00,
2013-03-07 15:46:00,51.3,39.9,30.06,WNW,294,4.0,5.0,65,0.00,,,0.17,204,Wunderground v.1.15,2013-03-07 23:46:00,
2013-03-07 15:51:00,51.3,39.9,30.06,WNW,300,1.0,2.0,65,0.00,,,0.17,167,Wunderground v.1.15,2013-03-07 23:51:00,
2013-03-07 15:56:00,51.3,39.9,30.06,WNW,300,2.0,3.0,65,0.00,,,0.17,162,Wunderground v.1.15,2013-03-07 23:56:00,
2013-03-07 16:01:00,51.6,40.6,30.06,NNW,339,2.0,4.0,66,0.00,,,0.17,172,Wunderground v.1.15,2013-03-08 00:01:00,
2013-03-07 16:06:00,51.5,40.1,30.06,West,280,2.0,4.0,65,0.00,,,0.17,163,Wunderground v.1.15,2013-03-08 00:06:00,
2013-03-07 16:11:00,51.2,39.8,30.06,NW,315,2.0,3.0,65,0.00,,,0.17,171,Wunderground v.1.15,2013-03-08 00:11:00,
2013-03-07 16:16:00,51.2,39.8,30.06,NW,315,2.0,3.0,65,0.00,,,0.17,148,Wunderground v.1.15,2013-03-08 00:16:00,
2013-03-07 16:21:00,51.4,40.0,30.06,WNW,296,2.0,3.0,65,0.00,,,0.17,178,Wunderground v.1.15,2013-03-08 00:21:00,
2013-03-07 16:26:00,51.3,40.3,30.06,West,272,0.0,3.0,66,0.00,,,0.17,176,Wunderground v.1.15,2013-03-08 00:26:00,
2013-03-07 16:31:00,51.2,39.8,30.06,West,271,1.0,2.0,65,0.00,,,0.17,171,Wunderground v.1.15,2013-03-08 00:31:00,
2013-03-07 16:36:00,51.4,39.6,30.06,West,271,1.0,2.0,64,0.00,,,0.17,125,Wunderground v.1.15,2013-03-08 00:36:00,
2013-03-07 16:41:00,51.2,39.0,30.06,West,271,2.0,2.0,63,0.00,,,0.17,121,Wunderground v.1.15,2013-03-08 00:41:00,
2013-03-07 16:46:00,51.4,39.6,30.06,West,271,0.0,2.0,64,0.00,,,0.17,120,Wunderground v.1.15,2013-03-08 00:46:00,
2013-03-07 16:51:00,51.3,39.1,30.06,West,271,1.0,2.0,63,0.00,,,0.17,118,Wunderground v.1.15,2013-03-08 00:51:00,
2013-03-07 16:56:00,51.1,39.3,30.06,West,269,0.0,3.0,64,0.00,,,0.17,102,Wunderground v.1.15,2013-03-08 00:56:00,
2013-03-07 17:01:00,51.0,39.2,30.06,West,269,0.0,1.0,64,0.00,,,0.17,90,Wunderground v.1.15,2013-03-08 01:01:00,
2013-03-07 17:06:00,51.2,39.0,30.06,West,269,1.0,2.0,63,0.00,,,0.17,77,Wunderground v.1.15,2013-03-08 01:06:00,
2013-03-07 17:11:00,51.0,38.8,30.06,West,269,0.0,0.0,63,0.00,,,0.17,62,Wunderground v.1.15,2013-03-08 01:11:00,
2013-03-07 17:16:00,51.1,38.9,30.06,West,269,0.0,2.0,63,0.00,,,0.17,54,Wunderground v.1.15,2013-03-08 01:16:00,
2013-03-07 17:22:00,51.2,39.0,30.06,West,269,2.0,2.0,63,0.00,,,0.17,46,Wunderground v.1.15,2013-03-08 01:22:00,
2013-03-07 17:27:00,51.0,39.2,30.06,West,269,0.0,2.0,64,0.00,,,0.17,42,Wunderground v.1.15,2013-03-08 01:27:00,
2013-03-07 17:32:00,50.9,39.1,30.07,West,269,0.0,2.0,64,0.00,,,0.17,32,Wunderground v.1.15,2013-03-08 01:32:00,
2013-03-07 17:37:00,50.6,39.7,30.07,West,269,1.0,2.0,66,0.00,,,0.17,25,Wunderground v.1.15,2013-03-08 01:37:00,
2013-03-07 17:42:00,50.4,40.2,30.07,West,269,0.0,1.0,68,0.00,,,0.17,19,Wunderground v.1.15,2013-03-08 01:42:00,
2013-03-07 17:47:00,50.2,40.4,30.06,West,269,1.0,2.0,69,0.00,,,0.17,14,Wunderground v.1.15,2013-03-08 01:47:00,
2013-03-07 17:52:00,50.1,40.3,30.07,West,269,1.0,3.0,69,0.00,,,0.17,12,Wunderground v.1.15,2013-03-08 01:52:00,
2013-03-07 17:57:00,50.0,40.6,30.07,WSW,244,2.0,3.0,70,0.00,,,0.17,5,Wunderground v.1.15,2013-03-08 01:57:00,
2013-03-07 18:02:00,49.7,41.0,30.07,SW,223,0.0,2.0,72,0.00,,,0.17,0,Wunderground v.1.15,2013-03-08 02:02:00,
2013-03-07 18:07:00,49.5,41.6,30.07,SW,223,1.0,3.0,74,0.00,,,0.17,0,Wunderground v.1.15,2013-03-08 02:07:00,
2013-03-07 18:12:00,49.4,41.8,30.07,SW,220,2.0,2.0,75,0.00,,,0.17,0,Wunderground v.1.15,2013-03-08 02:12:00,
2013-03-07 18:17:00,49.3,42.1,30.07,SW,220,0.0,2.0,76,0.00,,,0.17,0,Wunderground v.1.15,2013-03-08 02:17:00,
2013-03-07 18:22:00,49.2,42.0,30.07,SW,220,0.0,0.0,76,0.00,,,0.17,0,Wunderground v.1.15,2013-03-08 02:22:00,
2013-03-07 18:27:00,49.1,42.2,30.07,SW,220,1.0,2.0,77,0.00,,,0.17,0,Wunderground v.1.15,2013-03-08 02:27:00,
2013-03-07 18:32:00,49.0,42.1,30.07,SW,220,1.0,2.0,77,0.00,,,0.17,0,Wunderground v.1.15,2013-03-08 02:32:00,
2013-03-07 18:37:00,48.9,42.3,30.07,SW,219,2.0,3.0,78,0.00,,,0.17,0,Wunderground v.1.15,2013-03-08 02:37:00,
2013-03-07 18:42:00,48.8,42.2,30.08,SW,219,2.0,2.0,78,0.00,,,0.17,0,Wunderground v.1.15,2013-03-08 02:42:00,
2013-03-07 18:47:00,48.7,42.1,30.08,SW,219,0.0,2.0,78,0.00,,,0.17,0,Wunderground v.1.15,2013-03-08 02:47:00,
2013-03-07 18:52:00,48.5,42.3,30.08,SSW,213,0.0,1.0,79,0.00,,,0.17,0,Wunderground v.1.15,2013-03-08 02:52:00,
2013-03-07 18:57:00,48.5,42.3,30.08,SSW,205,2.0,2.0,79,0.00,,,0.17,0,Wunderground v.1.15,2013-03-08 02:57:00,
2013-03-07 19:02:00,48.5,42.3,30.08,South,186,2.0,3.0,79,0.00,,,0.17,0,Wunderground v.1.15,2013-03-08 03:02:00,
2013-03-07 19:07:00,48.4,42.2,30.08,ESE,102,1.0,5.0,79,0.00,,,0.17,0,Wunderground v.1.15,2013-03-08 03:07:00,
2013-03-07 19:12:00,48.4,42.2,30.08,East,100,1.0,4.0,79,0.00,,,0.17,0,Wunderground v.1.15,2013-03-08 03:12:00,
2013-03-07 19:17:00,48.3,42.1,30.08,East,95,1.0,4.0,79,0.00,,,0.17,0,Wunderground v.1.15,2013-03-08 03:17:00,
2013-03-07 19:22:00,48.2,42.3,30.08,East,82,1.0,1.0,80,0.00,,,0.17,0,Wunderground v.1.15,2013-03-08 03:22:00,
2013-03-07 19:27:00,48.0,42.1,30.08,East,82,0.0,1.0,80,0.00,,,0.17,0,Wunderground v.1.15,2013-03-08 03:27:00,
2013-03-07 19:32:00,47.8,41.9,30.08,East,81,0.0,1.0,80,0.00,,,0.17,0,Wunderground v.1.15,2013-03-08 03:32:00,
2013-03-07 19:37:00,47.6,42.1,30.08,East,90,0.0,2.0,81,0.00,,,0.17,0,Wunderground v.1.15,2013-03-08 03:37:00,
2013-03-07 19:42:00,47.4,41.9,30.09,East,92,0.0,2.0,81,0.00,,,0.17,0,Wunderground v.1.15,2013-03-08 03:42:00,
2013-03-07 19:47:00,47.3,41.8,30.09,East,92,0.0,2.0,81,0.00,,,0.17,0,Wunderground v.1.15,2013-03-08 03:47:00,
2013-03-07 19:52:00,47.2,41.3,30.09,East,92,0.0,0.0,80,0.00,,,0.17,0,Wunderground v.1.15,2013-03-08 03:52:00,
2013-03-07 19:57:00,46.9,41.4,30.09,East,92,0.0,1.0,81,0.00,,,0.17,0,Wunderground v.1.15,2013-03-08 03:57:00,
2013-03-07 20:02:00,46.7,41.5,30.09,East,92,0.0,0.0,82,0.00,,,0.17,0,Wunderground v.1.15,2013-03-08 04:02:00,
2013-03-07 20:07:00,46.4,41.2,30.09,East,92,0.0,1.0,82,0.00,,,0.17,0,Wunderground v.1.15,2013-03-08 04:07:00,
2013-03-07 20:12:00,46.2,41.3,30.09,East,92,0.0,0.0,83,0.00,,,0.17,0,Wunderground v.1.15,2013-03-08 04:12:00,
2013-03-07 20:17:00,46.1,41.2,30.09,East,92,0.0,0.0,83,0.00,,,0.17,0,Wunderground v.1.15,2013-03-08 04:17:00,
2013-03-07 20:22:00,45.9,41.0,30.09,East,92,0.0,0.0,83,0.00,,,0.17,0,Wunderground v.1.15,2013-03-08 04:22:00,
2013-03-07 20:27:00,45.7,40.8,30.09,East,92,1.0,1.0,83,0.00,,,0.17,0,Wunderground v.1.15,2013-03-08 04:27:00,
2013-03-07 20:32:00,45.5,40.9,30.09,East,92,0.0,1.0,84,0.00,,,0.17,0,Wunderground v.1.15,2013-03-08 04:32:00,
2013-03-07 20:37:00,45.1,40.9,30.09,East,92,0.0,1.0,85,0.00,,,0.17,0,Wunderground v.1.15,2013-03-08 04:37:00,
2013-03-07 20:42:00,44.9,41.0,30.09,East,92,0.0,1.0,86,0.00,,,0.17,0,Wunderground v.1.15,2013-03-08 04:42:00,
2013-03-07 20:47:00,44.7,40.8,30.10,East,92,0.0,1.0,86,0.00,,,0.17,0,Wunderground v.1.15,2013-03-08 04:47:00,
2013-03-07 20:52:00,44.5,40.9,30.10,East,92,0.0,1.0,87,0.00,,,0.17,0,Wunderground v.1.15,2013-03-08 04:52:00,
2013-03-07 20:57:00,44.4,40.8,30.10,East,92,0.0,1.0,87,0.00,,,0.17,0,Wunderground v.1.15,2013-03-08 04:57:00,
2013-03-07 21:00:00,44.3,40.7,30.10,East,92,0.0,1.0,87,0.00,,,0.17,0,Wunderground v.1.15,2013-03-08 05:00:00,
2013-03-07 21:02:00,44.2,40.6,30.10,East,92,0.0,2.0,87,0.00,,,0.17,0,Wunderground v.1.15,2013-03-08 05:02:00,
2013-03-07 21:07:00,44.0,40.7,30.10,East,92,0.0,2.0,88,0.00,,,0.17,0,Wunderground v.1.15,2013-03-08 05:07:00,
2013-03-07 21:12:00,43.8,40.5,30.10,East,92,0.0,2.0,88,0.00,,,0.17,0,Wunderground v.1.15,2013-03-08 05:12:00,
2013-03-07 21:17:00,43.7,40.7,30.10,East,92,0.0,2.0,89,0.00,,,0.17,0,Wunderground v.1.15,2013-03-08 05:17:00,
2013-03-07 21:22:00,43.6,40.6,30.10,East,92,0.0,1.0,89,0.00,,,0.17,0,Wunderground v.1.15,2013-03-08 05:22:00,
2013-03-07 21:27:00,43.5,40.5,30.10,East,92,0.0,1.0,89,0.00,,,0.17,0,Wunderground v.1.15,2013-03-08 05:27:00,
2013-03-07 21:32:00,43.4,40.4,30.10,East,92,0.0,0.0,89,0.00,,,0.17,0,Wunderground v.1.15,2013-03-08 05:32:00,
2013-03-07 21:37:00,43.3,40.3,30.10,East,92,0.0,0.0,89,0.00,,,0.17,0,Wunderground v.1.15,2013-03-08 05:37:00,
2013-03-07 21:42:00,43.1,40.1,30.10,East,92,0.0,2.0,89,0.00,,,0.17,0,Wunderground v.1.15,2013-03-08 05:42:00,
2013-03-07 21:47:00,43.0,40.3,30.10,East,92,0.0,2.0,90,0.00,,,0.17,0,Wunderground v.1.15,2013-03-08 05:47:00,
2013-03-07 21:52:00,42.9,40.2,30.10,East,92,0.0,0.0,90,0.00,,,0.17,0,Wunderground v.1.15,2013-03-08 05:52:00,
2013-03-07 21:57:00,42.8,40.1,30.10,East,92,0.0,0.0,90,0.00,,,0.17,0,Wunderground v.1.15,2013-03-08 05:57:00,
2013-03-07 22:02:00,42.8,39.8,30.10,East,92,0.0,0.0,89,0.00,,,0.17,0,Wunderground v.1.15,2013-03-08 06:02:00,
2013-03-07 22:07:00,42.6,39.9,30.10,East,92,0.0,0.0,90,0.00,,,0.17,0,Wunderground v.1.15,2013-03-08 06:07:00,
2013-03-07 22:12:00,42.5,39.8,30.11,East,92,0.0,0.0,90,0.00,,,0.17,0,Wunderground v.1.15,2013-03-08 06:12:00,
2013-03-07 22:17:00,42.4,39.7,30.11,East,92,0.0,0.0,90,0.00,,,0.17,0,Wunderground v.1.15,2013-03-08 06:17:00,
2013-03-07 22:22:00,42.3,39.6,30.11,East,92,0.0,0.0,90,0.00,,,0.17,0,Wunderground v.1.15,2013-03-08 06:22:00,
2013-03-07 22:27:00,42.1,39.4,30.11,East,92,1.0,1.0,90,0.00,,,0.17,0,Wunderground v.1.15,2013-03-08 06:27:00,
2013-03-07 22:32:00,42.0,39.6,30.11,East,92,0.0,1.0,91,0.00,,,0.17,0,Wunderground v.1.15,2013-03-08 06:32:00,
2013-03-07 22:37:00,42.0,39.6,30.11,East,92,0.0,1.0,91,0.00,,,0.17,0,Wunderground v.1.15,2013-03-08 06:37:00,
2013-03-07 22:42:00,41.9,39.5,30.11,East,92,0.0,0.0,91,0.00,,,0.17,0,Wunderground v.1.15,2013-03-08 06:42:00,
2013-03-07 22:47:00,41.8,39.4,30.11,East,92,0.0,0.0,91,0.00,,,0.17,0,Wunderground v.1.15,2013-03-08 06:47:00,
2013-03-07 22:52:00,41.8,39.4,30.11,East,92,0.0,0.0,91,0.00,,,0.17,0,Wunderground v.1.15,2013-03-08 06:52:00,
2013-03-07 22:57:00,41.6,39.2,30.11,East,92,0.0,2.0,91,0.00,,,0.17,0,Wunderground v.1.15,2013-03-08 06:57:00,
2013-03-07 23:02:00,41.5,39.1,30.11,East,92,0.0,1.0,91,0.00,,,0.17,0,Wunderground v.1.15,2013-03-08 07:02:00,
2013-03-07 23:07:00,41.4,39.0,30.11,East,92,0.0,1.0,91,0.00,,,0.17,0,Wunderground v.1.15,2013-03-08 07:07:00,
2013-03-07 23:12:00,41.3,39.2,30.11,East,92,0.0,0.0,92,0.00,,,0.17,0,Wunderground v.1.15,2013-03-08 07:12:00,
2013-03-07 23:17:00,41.2,39.1,30.11,East,92,0.0,2.0,92,0.00,,,0.17,0,Wunderground v.1.15,2013-03-08 07:17:00,
2013-03-07 23:22:00,41.1,39.0,30.11,East,92,1.0,1.0,92,0.00,,,0.17,0,Wunderground v.1.15,2013-03-08 07:22:00,
2013-03-07 23:27:00,41.1,39.0,30.11,East,92,0.0,2.0,92,0.00,,,0.17,0,Wunderground v.1.15,2013-03-08 07:27:00,
2013-03-07 23:32:00,41.2,39.3,30.11,East,92,1.0,2.0,93,0.00,,,0.17,0,Wunderground v.1.15,2013-03-08 07:32:00,
2013-03-07 23:37:00,41.2,39.3,30.11,East,92,1.0,2.0,93,0.00,,,0.17,0,Wunderground v.1.15,2013-03-08 07:37:00,
2013-03-07 23:42:00,41.2,39.3,30.11,East,92,1.0,2.0,93,0.00,,,0.17,0,Wunderground v.1.15,2013-03-08 07:42:00,
2013-03-07 23:47:00,41.2,39.3,30.11,East,92,0.0,2.0,93,0.00,,,0.17,0,Wunderground v.1.15,2013-03-08 07:47:00,
2013-03-07 23:52:00,41.2,39.3,30.11,East,92,0.0,1.0,93,0.00,,,0.17,0,Wunderground v.1.15,2013-03-08 07:52:00,
2013-03-07 23:57:00,41.2,39.3,30.11,East,92,0.0,2.0,93,0.00,,,0.00,0,Wunderground v.1.15,2013-03-08 07:57:00,